Flag for Tunisia Weather past 2 weeks in Sfax, Tunisia

Now
66 °F

Passing clouds.


Feels Like: 66 °F
Forecast: 62 / 78 °F
Wind: 9 mph from North

Location: Sfax El-Maou

Current Time: May 26, 2015 at 1:59:33 AM

Latest Report: May 25, 2015 at 11:00 PM


Visibility: N/A

Pressure: 29.83 "Hg

Humidity: 73%

Dew point: 57 °F

Location of SfaxLocation

Historic Weather in Sfax — Graph

°F

Sfax temperature yesterday

Maximum temperature yesterday: 73 °F (at 11:00 AM)
Minimum temperature yesterday: 66 °F (at 1:00 AM)
Average temperature yesterday: 70 °F

Past Weeks' High & Low Weather Summary

 TemperatureHumidityPressure
High95 °F (May 15, 12:00 PM)88% (May 19, 4:00 AM)30.27 "Hg (May 19, 4:00 AM)
Low59 °F (May 13, 4:00 AM)13% (May 15, 10:00 AM)29.77 "Hg (May 19, 6:00 PM)
Average72 °F50%29.99 "Hg
* Reported May 10 11:00 PM — May 25 11:00 PM, Sfax, Weather by CustomWeather, © 2015

Note: Actual official high and low records may vary slightly from our data, if they occured in-between our weather recording intervals... More about our weather records

Advertising

Sfax weather history for previous 24 hours

 ConditionsComfort  
Time TempWeatherWind HumidityBarometerVisibility
11:00 PM
Mon, May 25
66 °FPassing clouds.9 mph73%29.83 "HgN/A
10:00 PM66 °FPassing clouds.10 mph78%29.83 "HgN/A
9:00 PM66 °FPassing clouds.14 mph78%29.83 "HgN/A
8:00 PM68 °FPassing clouds.17 mph73%29.83 "HgN/A
7:00 PM68 °FPassing clouds.18 mph69%29.80 "HgN/A
6:00 PM72 °FPassing clouds.18 mph57%29.80 "HgN/A
5:00 PM72 °FPassing clouds.18 mph57%29.80 "HgN/A
4:00 PM73 °FPassing clouds.17 mph53%29.83 "HgN/A
3:00 PM73 °FPassing clouds.20 mph53%29.83 "HgN/A
2:00 PM73 °FPassing clouds.20 mph47%29.86 "HgN/A
1:00 PM73 °FPassing clouds.16 mph44%29.89 "HgN/A
12:00 PM73 °FPassing clouds.17 mph50%29.92 "HgN/A
11:00 AM73 °FPassing clouds.20 mph53%29.92 "HgN/A
10:00 AM72 °FPassing clouds.16 mph57%29.92 "HgN/A
9:00 AM72 °FPassing clouds.16 mph57%29.92 "HgN/A
8:00 AM70 °FPassing clouds.16 mph60%29.92 "HgN/A
7:00 AM68 °FPassing clouds.13 mph64%29.92 "HgN/A
6:00 AM66 °FPassing clouds.12 mph73%29.92 "HgN/A
4:00 AM66 °FClear.13 mph73%29.95 "Hg10 mi
2:00 AM66 °FClear.10 mph68%29.95 "Hg10 mi
1:00 AM66 °FClear.12 mph68%29.95 "Hg10 mi
Weather by CustomWeather, © 2015

See weather overviewHow to use our weather pages